Location: Piotrkow Trybunalski
(51.4000°N, 19.6830°E)
Time: 07:35:17
(UTC+02:00)

STRAND 1 - Pass Details

Date: 03 March 2024
Orbit: 764 x 779 km, 98.4° (Epoch: 24 April)

Event Time Altitude Azimuth Distance (km) Brightness Sun altitude
Rises 04:52:32 0° 158° (SSE) 3,252 ? -14.6°
Reaches altitude 10° 04:54:50 10° 156° (SSE) 2,329 ? -14.3°
Maximum altitude 04:59:58 75° 72° (ENE) 811 ? -13.5°
Drops below altitude 10° 05:05:08 10° 348° (NNW) 2,343 ? -12.7°
Sets 05:07:27 0° 347° (NNW) 3,273 ? -12.3°
